Vero Beach, FL

1:48 AM EDT on April 23, 2017 (GMT -0400)
Vero Beach Municipal

Weather History for KVRB - September, 2012

Change the Weather History Date:

Wednesday, September 19, 2012

  Actual Average Record
Temperature  
Mean Temperature 82 °F 81 °F  
Max Temperature 90 °F 88 °F 94 °F (1987)
Min Temperature 73 °F 73 °F 64 °F (1981)
Degree Days  
Heating Degree Days 0 0  
Month to date heating degree days 0 0  
Since 1 July heating degree days 0 0  
Cooling Degree Days 17 16  
Month to date cooling degree days 294 304  
Year to date cooling degree days 2827 2602  
Growing Degree Days 31 (Base 50)    
Moisture  
Dew Point 72 °F    
Average Humidity 75    
Maximum Humidity 97    
Minimum Humidity 52    
Precipitation  
Precipitation 0.23 in 0.24 in 2.36 in (1943)
Month to date precipitation 7.69 4.32  
Year to date precipitation 39.88 39.02  
Sea Level Pressure  
Sea Level Pressure 30.00 in    
Wind  
Wind Speed 6 mph (SW)    
Max Wind Speed 17 mph    
Max Gust Speed 21 mph    
Visibility 9 miles    
Events Rain , Thunderstorm    
T = Trace of Precipitation, MM = Missing Value Source: NWS Daily Summary

Daily Weather History Graph

Daily Weather History Graph

Search for Another Location

Airport or City:

Trip Planner

Search our weather history database for the weather conditions in past years. The results will help you decide how hot, cold, wet, or windy it might be!

Date:

Astronomy

Sep. 19, 2012 Rise Set
Actual Time 7:09 AM EDT 7:21 PM EDT
Civil Twilight 6:45 AM EDT 7:44 PM EDT
Nautical Twilight 6:18 AM EDT 8:11 PM EDT
Astronomical Twilight 5:50 AM EDT 8:39 PM EDT
Moon 10:50 AM EDT (9/19) 9:57 PM EDT (9/19)
Length of Visible Light 12h 58m
Length of Day
12h 12m
Waxing Crescent, 17% of the Moon is Illuminated
Sep 19
Waxing Crescent
Sep 22
First Quarter
Sep 29
Full
Oct 8
Last Quarter
Oct 15
New

Hourly Weather History & Observations

Time (EDT) Temp. Heat Index Dew Point Humidity Pressure Visibility Wind Dir Wind Speed Gust Speed Precip Events Conditions
12:53 AM 73.0 °F - 71.1 °F 93% 29.98 in 10.0 mi SSE 6.9 mph - N/A   Clear
1:53 AM 73.9 °F - 72.0 °F 93% 29.97 in 10.0 mi SSE 5.8 mph - N/A   Clear
2:53 AM 73.9 °F - 72.0 °F 93% 29.95 in 10.0 mi SSW 5.8 mph - N/A   Clear
3:53 AM 73.9 °F - 72.0 °F 93% 29.93 in 10.0 mi South 6.9 mph - N/A   Clear
4:53 AM 73.9 °F - 72.0 °F 93% 29.94 in 10.0 mi South 9.2 mph - N/A   Clear
5:53 AM 73.9 °F - 71.1 °F 91% 29.96 in 10.0 mi West 5.8 mph - N/A   Scattered Clouds
6:04 AM 73.4 °F - 71.6 °F 94% 29.96 in 10.0 mi WSW 5.8 mph - N/A   Mostly Cloudy
6:53 AM 73.9 °F - 72.0 °F 93% 29.97 in 10.0 mi South 4.6 mph - N/A   Mostly Cloudy
7:53 AM 73.9 °F - 72.0 °F 93% 29.99 in 10.0 mi West 3.5 mph - N/A   Mostly Cloudy
8:05 AM 73.4 °F - 71.6 °F 94% 29.99 in 10.0 mi West 3.5 mph - N/A   Scattered Clouds
8:53 AM 77.0 °F - 73.9 °F 90% 29.99 in 10.0 mi SW 5.8 mph - N/A   Partly Cloudy
9:06 AM 77.0 °F - 73.4 °F 89% 30.00 in 10.0 mi WSW 5.8 mph - N/A   Mostly Cloudy
9:53 AM 78.1 °F - 73.9 °F 87% 30.00 in 10.0 mi WSW 10.4 mph - N/A   Mostly Cloudy
10:07 AM 78.8 °F - 73.4 °F 83% 30.01 in 10.0 mi WSW 9.2 mph - N/A   Scattered Clouds
10:53 AM 81.0 °F 86.2 °F 73.9 °F 79% 30.02 in 10.0 mi West 6.9 mph - N/A   Clear
11:53 AM 84.0 °F 89.0 °F 71.1 °F 65% 30.02 in 10.0 mi WSW 8.1 mph - N/A   Partly Cloudy
12:53 PM - - - N/A% 30.01 in - WNW 9.2 mph - N/A   Clear
1:53 PM - - - N/A% 30.00 in - Variable 4.6 mph - N/A   Clear
2:53 PM 87.8 °F 93.8 °F 71.6 °F 58% 29.99 in 10.0 mi West 8.1 mph - N/A   Scattered Clouds
3:53 PM 89.1 °F 94.1 °F 70.0 °F 53% 29.97 in 10.0 mi SSW 5.8 mph - N/A   Scattered Clouds
4:53 PM 89.1 °F 93.7 °F 69.1 °F 52% 29.97 in 10.0 mi SSW 3.5 mph - N/A   Scattered Clouds
5:53 PM 82.9 °F 88.8 °F 73.0 °F 72% 29.98 in 10.0 mi ESE 8.1 mph - N/A   Mostly Cloudy
6:22 PM 78.8 °F - 68.0 °F 69% 30.00 in 10.0 mi NNW 11.5 mph - N/A   Overcast
6:32 PM 78.8 °F - 69.8 °F 74% 29.99 in 10.0 mi NNE 11.5 mph - N/A   Overcast
6:53 PM 77.0 °F - 70.0 °F 79% 30.01 in 10.0 mi NE 5.8 mph - 0.00 in Rain , Thunderstorm Light Thunderstorms and Rain
7:53 PM 75.0 °F - 73.0 °F 94% 30.03 in 5.0 mi Calm Calm - 0.06 in Rain , Thunderstorm Light Rain
8:19 PM 75.2 °F - 71.6 °F 89% 30.05 in 4.0 mi West 6.9 mph - 0.03 in Rain , Thunderstorm Rain
8:26 PM 73.4 °F - 71.6 °F 94% 30.04 in 4.0 mi NW 4.6 mph - 0.05 in Rain , Thunderstorm Rain
8:39 PM 73.4 °F - 71.6 °F 94% 30.04 in 4.0 mi Calm Calm - 0.09 in Rain Light Rain
8:53 PM 73.4 °F - 71.6 °F 94% 30.04 in 8.0 mi East 4.6 mph - N/A Rain , Thunderstorm Light Rain
9:13 PM 73.4 °F - 71.6 °F 94% 30.05 in 8.0 mi SE 3.5 mph - 0.01 in Rain Light Rain
9:53 PM 73.9 °F - 72.0 °F 93% 30.06 in 10.0 mi ESE 6.9 mph - 0.05 in   Clear
10:53 PM 75.0 °F - 72.0 °F 90% 30.06 in 10.0 mi SE 5.8 mph - 0.01 in   Clear
11:53 PM 75.0 °F - 72.0 °F 90% 30.05 in 10.0 mi South 4.6 mph - N/A   Clear